Flag for Norway Weather past 2 weeks in Langesund, Norway

Now
45 °F

Quite cool.


Feels Like: 42 °F
Forecast: 32 / 47 °F
Wind: 5 mph from Northwest

Location: Jomfruland Fyr

Current Time: Apr 1, 2015 at 12:20:57 PM

Latest Report: Apr 1, 2015 at 11:00 AM


Visibility: N/A

Pressure: 29.32 "Hg

Humidity: 48%

Dew point: 26 °F

Location of LangesundLocation

Historic Weather in Langesund — Graph

°F

Langesund temperature yesterday

Maximum temperature yesterday: 43 °F (at 1:00 PM)
Minimum temperature yesterday: 32 °F (at 7:00 AM)
Average temperature yesterday: 39 °F

Past Weeks' High & Low Weather Summary

 TemperatureHumidityPressure
High48 °F (Mar 24, 3:00 PM)100% (Mar 26, 9:00 AM)30.68 "Hg (Mar 26, 9:00 AM)
Low29 °F (Mar 26, 6:00 AM)29% (Mar 21, 7:00 PM)28.94 "Hg (Mar 30, 1:00 AM)
Average38 °F82%29.83 "Hg
* Reported Mar 17 10:00 AM — Apr 1 11:00 AM, Langesund, Weather by CustomWeather, © 2015

Note: Actual official high and low records may vary slightly from our data, if they occured in-between our weather recording intervals... More about our weather records

Advertising

Langesund weather history for previous 24 hours

 ConditionsComfort  
Time TempWeatherWind HumidityBarometerVisibility
11:00 AM
Wed, Apr 1
45 °FQuite cool.5 mph48%29.32 "HgN/A
10:00 AM41 °FQuite cool.5 mph61%29.29 "HgN/A
9:00 AM40 °FQuite cool.2 mph60%29.29 "HgN/A
8:00 AM38 °FChilly.5 mph68%29.26 "HgN/A
7:00 AM36 °FChilly.6 mph77%29.23 "HgN/A
6:00 AM35 °FChilly.6 mph74%29.23 "HgN/A
5:00 AM36 °FChilly.5 mph70%29.21 "HgN/A
4:00 AM36 °FChilly.5 mph69%29.21 "HgN/A
3:00 AM37 °FChilly.5 mph69%29.21 "HgN/A
2:00 AM38 °FChilly.5 mph66%29.18 "HgN/A
1:00 AM39 °FChilly.5 mph59%29.18 "HgN/A
12:00 AM40 °FChilly.6 mph69%29.15 "HgN/A
11:00 PM
Tue, Mar 31
41 °FQuite cool.5 mph68%29.15 "HgN/A
10:00 PM41 °FQuite cool.6 mph68%29.12 "HgN/A
9:00 PM42 °FQuite cool.7 mph61%29.12 "HgN/A
8:00 PM41 °FQuite cool.6 mph85%29.09 "HgN/A
7:00 PM40 °FQuite cool.10 mph86%29.09 "HgN/A
6:00 PM40 °FQuite cool.9 mph81%29.06 "HgN/A
5:00 PM41 °FQuite cool.7 mph77%29.06 "HgN/A
4:00 PM41 °FQuite cool.7 mph68%29.06 "HgN/A
3:00 PM42 °FQuite cool.5 mph56%29.03 "HgN/A
2:00 PM42 °FQuite cool.3 mph51%29.03 "HgN/A
1:00 PM43 °FQuite cool.2 mph52%29.03 "HgN/A
12:00 PM41 °FQuite cool.2 mph60%29.00 "HgN/A
Weather by CustomWeather, © 2015

See weather overviewHow to use our weather pages